Location: Frankfurt+am+Main
(50.1100°N, 8.4815°E)
Time: 08:04:19
(UTC+01:00)

Tiangong 2 - Visible Passes

Search period start: 22 November 2017 00:00
Search period end: 02 December 2017 00:00
Orbit: 386 x 392 km, 42.8° (Epoch: 21 November)

Date Brightness Start Highest point End Pass type
(mag) Time Alt. Az. Time Alt. Az. Time Alt. Az.
27 Nov 4.3 06:51:03 10° S 06:52:05 11° SSE 06:53:08 10° SE visible
29 Nov 3.9 06:30:12 10° SSW 06:32:10 15° SSE 06:34:08 10° SE visible
30 Nov 4.0 05:33:28 11° S 05:34:11 12° SSE 05:35:22 10° SE visible
30 Nov 3.4 07:07:48 10° SW 07:10:18 21° S 07:12:49 10° ESE visible
01 Dec 3.4 06:10:32 13° SSW 06:12:15 19° S 06:14:36 10° ESE visible
